Hourly Data Report for October 09, 2003

SHERBROOKE A
QUEBEC

45°26'00.000" N
71°41'00.000" W
241.40 m
7028124
71610
YSC

Download Data

Hourly Data (October 2003)
Hourly Data Report for October 9, 2003
TIME
LST
Temp Definition
°C
Dew Point Definition
°C
Rel Hum Definition
%
Precip. Amount Definition
mm

Wind Dir Definition
10's deg

Wind Spd Definition
km/h
Visibility Definition
km
Stn Press Definition
kPa
Hmdx Definition


Wind Chill Definition


Weather Definition


00:00 4.9 4.2 95     0 12.9 99.02      
01:00 4.6 4.3 98     0 11.3 99.02      
02:00 4.5 4.1 97     0 8.0 99.02      
03:00 4.1 4.0 99     0 8.0 99.05      
04:00 4.8 4.7 99   12 4 6.4 99.13      
05:00 3.4 2.9 97   3 4 3.1 99.20      
06:00 3.1 2.7 97     0 2.6 99.31      
07:00 6.5 5.7 95     0 9.7 99.40     Fog
08:00 9.6 8.8 95     0 9.7 99.47     Fog
09:00 11.8 10.4 91     0 16.1 99.53     Cloudy
10:00 13.8 10.9 83   4 6 16.1 99.56     Cloudy
11:00 14.9 11.9 82     0 19.3 99.56     Mostly Cloudy
12:00 16.3 11.9 75   36 7 19.3 99.53     Mainly Clear
13:00 17.8 13.1 74   3 4 24.1 99.48     Mainly Clear
14:00 18.4 12.8 70   5 6 19.3 99.47     Mainly Clear
15:00 18.0 11.9 68   7 7 24.1 99.47     Mainly Clear
16:00 17.5 12.1 71   4 6 24.1 99.49     Clear
17:00 15.3 12.1 81   4 6 15.0 99.52      
18:00 13.7 11.3 85   4 6 15.0 99.54      
19:00 12.0 10.2 89   7 6 11.3 99.55      
20:00 11.4 9.8 90   8 7 9.7 99.55      
21:00 10.5 9.6 94   8 6 6.4 99.56      
22:00 8.5 7.9 96   10 6 2.9 99.57      
23:00 7.9 7.8 99   11 6 1.8 99.56      

Notes on Data Quality.

Legend

  • E = Estimated
  • M = Missing
  • NA = Not Available*
  • [empty] = Indicates an unobserved value
Date modified: